sat.trackr.live / text

‹ back to catalog

SITRO-AIS 46

NORAD 61774 · 2024-199AR

PAYLOAD ACTIVE UNKNOWN

§ Identity

Operator
Country
CIS
Launch date
2024-11-04
Launch site
VOSTO
Launch vehicle
Mass (kg)
RCS (m²)

External: N2YO · Heavens-Above · Gunter

§ Orbital elements

Epoch: 2026-05-25T03:42:48.532032Z

Period
92.43 min
Inclination
97.2928°
Eccentricity
0.0007189
Mean motion
15.57910410 rev/d
Perigee alt
388.8 km
Apogee alt
398.6 km
Semi-major
6,771.8 km
B*
6.4240e-4
RAAN
21.0842°
Arg perigee
34.5668°
Mean anomaly
325.6054°
Rev number
13,088

§ Raw data

SITRO-AIS 461 61774U 24199AR  26145.15472838  .00048113  00000+0  64240-3 0  99912 61774  97.2928  21.0842 0007189  34.5668 325.6054 15.57910410130886

JSON: /api/v1/satellites/61774 · /tle

For live sub-satellite position, see the globe view (requires WebGL).

§ Visibility from observer

Set your observer location to see the next 7 days of passes ≥ 10°. The values pass through the URL so the page stays shareable.

No JS? Fill the form by hand. The geolocation button needs JavaScript.

§ Radio — SatNOGS DB

ModeDescriptionDownlinkUplink
GMSK USP Mode U - GMSK2k4 - USP 401.205 MHz

1 transmitter · refreshed weekly from db.satnogs.org